[[{"header":{"parameterUnit":"m.s-1","parameterCategory":1,"la1":30.2991,"la2":30.254,"lo1":-89.0895,"lo2":-89.0444,"dy":0.0017,"dx":0.0017,"nx":28,"ny":28,"refTime":"2024-02-17T03:00:00:Z","depth":0,"parameterNumber":2,"parameterNumberName":"U-component_of_WINDS"},"data":[0,0,0,0,0,0,0,0,0,0,0,0,0,0,0,0,0,0,0,0,0,0,0,0,0,0,0,0,0,0,0,0,0,0,0,0,0,0,0,0,0,0,0,0,0,0,0,0,0,0,0,0,0,0,0,0,0,0,-0.2871,-0.2872,0,-0.2902,-0.2902,-0.2902,-0.2868,-0.2867,-0.2866,-0.2865,-0.2898,-0.29,-0.2902,0,0,0,0,0,0,0,0,0,0,0,0,0,-0.2786,-0.2787,-0.2871,-0.2872,-0.2872,-0.2902,-0.2902,-0.2902,-0.2869,-0.2867,-0.2866,-0.2864,-0.2897,-0.2899,-0.2902,0,0,0,0,0,0,0,0,0,0,0,0,0,-0.282,-0.2788,-0.2871,-0.2859,-0.2858,-0.2902,-0.2902,-0.2903,-0.2869,-0.2867,-0.2865,-0.2863,-0.2896,-0.2899,-0.2902,-0.296,0,0,-0.2912,-0.2913,0,0,0,0,0,0,0,0,-0.2818,-0.2823,-0.286,-0.286,-0.2859,-0.2879,-0.2884,-0.2922,-0.287,-0.2865,-0.2865,-0.2862,-0.2893,-0.2896,-0.2906,-0.2962,-0.2963,-0.2912,-0.2914,-0.2915,-0.2916,0,0,0,0,0,0,0,-0.2816,-0.2822,-0.2883,-0.2861,-0.286,-0.2852,-0.2855,-0.2891,-0.289,-0.2865,-0.2863,-0.2867,-0.2892,-0.2904,-0.2907,-0.2964,-0.2912,-0.2915,-0.2917,-0.2918,-0.3068,-0.307,0,0,0,0,0,0,-0.2815,-0.282,-0.2882,-0.2884,-0.2833,-0.2855,-0.2858,-0.2875,-0.2889,-0.2889,-0.2868,-0.2865,-0.2899,-0.2903,-0.2908,-0.2977,-0.2915,-0.2918,-0.292,-0.3066,-0.3068,-0.307,0,0,0,0,0,0,-0.2813,-0.2821,-0.2881,-0.2852,-0.2859,-0.2859,-0.2877,-0.2876,-0.2887,-0.2891,-0.2891,-0.288,-0.2898,-0.2904,-0.2947,-0.2978,-0.292,-0.2922,-0.3063,-0.3066,-0.3069,-0.3115,0,0,0,0,0,0,-0.2811,-0.282,-0.2842,-0.2852,-0.286,-0.292,-0.2879,-0.2878,-0.2893,-0.2889,-0.2902,-0.2903,-0.2897,-0.2943,-0.295,-0.2981,-0.2925,-0.306,-0.3064,-0.3068,-0.3111,-0.312,-0.3127,0,0,0,0,0,-0.2808,-0.2854,-0.2843,-0.2851,-0.2888,-0.2922,-0.2926,-0.2918,-0.2895,-0.2917,-0.292,-0.2902,-0.2973,-0.2948,-0.2956,-0.2988,-0.3058,-0.3063,-0.3068,-0.3108,-0.3118,-0.3127,0,0,0,0,0,0,-0.2849,-0.2855,-0.2843,-0.2895,-0.2908,-0.2916,-0.2944,-0.2929,-0.295,-0.2945,-0.2935,-0.2938,-0.2985,-0.299,-0.2962,-0.3044,-0.3012,-0.3018,-0.3039,-0.3049,-0.3057,-0.3055,-0.2927,0,0,0,0,0,-0.2863,-0.289,-0.2895,-0.2939,-0.2946,-0.2944,-0.2959,-0.2951,-0.2964,-0.297,-0.2976,-0.299,-0.3015,-0.3032,-0.3056,-0.3111,-0.3114,-0.3137,-0.3145,-0.3151,-0.3158,-0.3188,-0.3198,-0.3086,-0.3086,-0.3086,0,0,-0.2895,-0.2902,-0.2919,-0.2948,-0.2957,-0.2985,-0.2949,-0.2981,-0.3002,-0.2975,-0.3017,-0.3021,-0.3036,-0.3086,-0.3108,-0.3092,-0.3189,-0.3157,-0.3163,-0.3165,-0.3194,-0.3204,-0.3214,-0.3089,-0.3089,-0.3088,0,0,-0.2966,-0.2974,-0.3012,-0.3022,-0.3036,-0.3034,-0.3043,-0.3053,-0.3055,-0.3096,-0.3076,-0.3101,-0.3145,-0.3157,-0.3168,-0.3243,-0.3228,-0.3251,-0.3293,-0.3322,-0.3331,-0.3339,-0.3366,-0.3376,-0.3257,-0.3257,-0.3257,0,-0.3004,-0.3045,-0.3034,-0.3066,-0.308,-0.3055,-0.3094,-0.3104,-0.3126,-0.3136,-0.3117,-0.3171,-0.3179,-0.3232,-0.325,-0.326,-0.327,-0.325,-0.333,-0.3338,-0.3345,-0.3371,-0.3381,-0.3259,-0.3259,-0.3259,-0.3259,0,-0.309,-0.3119,-0.3148,-0.3169,-0.3185,-0.3221,-0.3215,-0.3233,-0.3223,-0.3223,-0.3266,-0.3274,-0.3299,-0.3311,-0.3302,-0.3362,-0.3351,-0.3332,-0.3299,-0.3359,-0.3383,-0.3393,-0.3263,-0.3262,-0.3262,-0.3261,0,0,-0.319,-0.3203,-0.3214,-0.3223,-0.3236,-0.3259,-0.3293,-0.3316,-0.3332,-0.3347,-0.3376,-0.3413,-0.3394,-0.3408,-0.34,-0.3425,-0.3484,-0.3402,-0.3402,-0.3418,-0.3551,-0.3567,-0.3578,-0.3473,-0.3475,-0.3477,-0.355,0,-0.3263,-0.3322,-0.3312,-0.337,-0.3396,-0.3373,-0.3403,-0.3415,-0.3415,-0.3438,-0.3438,-0.3465,-0.3438,-0.3446,-0.347,-0.3472,-0.3511,-0.3466,-0.3501,-0.3503,-0.3499,-0.3591,-0.3608,-0.3677,-0.3559,-0.3561,-0.3562,0,-0.3356,-0.3373,-0.3434,-0.3442,-0.3453,-0.348,-0.35,-0.3522,-0.3535,-0.3533,-0.3547,-0.3534,-0.3569,-0.3535,-0.3582,-0.3552,-0.3565,-0.3568,-0.3571,-0.3575,-0.3537,-0.3598,-0.3698,-0.3709,-0.3577,-0.3575,-0.3574,0,-0.3423,-0.3462,-0.3503,-0.3511,-0.3522,-0.3542,-0.3547,-0.3558,-0.3572,-0.359,-0.3599,-0.3621,-0.3633,-0.3651,-0.3644,-0.362,-0.3693,-0.3658,-0.3694,-0.3694,-0.3712,-0.3711,-0.3816,-0.3718,-0.3718,-0.3718,-0.3718,0,-0.3506,-0.3544,-0.3534,-0.3559,-0.3601,-0.3589,-0.3631,-0.3633,-0.3642,-0.3668,-0.3649,-0.3674,-0.3663,-0.3687,-0.3682,-0.3722,-0.3728,-0.3728,-0.3726,-0.373,-0.373,-0.374,-0.3735,-0.3721,-0.372,-0.3719,-0.3719,0,-0.359,-0.3584,-0.3628,-0.3634,-0.3636,-0.3667,-0.3672,-0.3696,-0.3694,-0.3727,-0.3734,-0.3731,-0.3758,-0.3753,-0.3783,-0.3779,-0.383,-0.3822,-0.3826,-0.3825,-0.3861,-0.3858,-0.3977,-0.3992,-0.3883,-0.3884,-0.3885,0,-0.3643,-0.3672,-0.3681,-0.3696,-0.3703,-0.3728,-0.3743,-0.3732,-0.3748,-0.3763,-0.3785,-0.381,-0.383,-0.3874,-0.3875,-0.3898,-0.3891,-0.3931,-0.3895,-0.3898,-0.3893,-0.3892,-0.3895,-0.3939,-0.394,-0.3941,-0.3942,0,-0.374,-0.3735,-0.3757,-0.3777,-0.3795,-0.381,-0.3824,-0.3838,-0.3828,-0.3847,-0.3874,-0.3889,-0.3919,-0.3944,-0.3965,-0.3971,-0.3955,-0.3953,-0.3963,-0.3968,-0.3969,-0.397,-0.3847,-0.3951,-0.395,-0.3949,-0.3949,-0.3949,-0.3811,-0.3835,-0.3845,-0.3869,-0.3878,-0.3891,-0.3914,-0.3914,-0.3936,-0.396,-0.3952,-0.3983,-0.3993,-0.402,-0.4028,-0.4052,-0.4037,-0.4051,-0.4054,-0.4058,-0.4063,-0.3964,-0.4055,-0.4055,-0.4055,-0.4055,-0.4055,0,-0.3907,-0.3912,-0.3934,-0.3953,-0.3973,-0.3955,-0.3969,-0.3986,-0.4014,-0.4025,-0.4044,-0.4075,-0.4099,-0.4101,-0.4124,-0.4143,-0.4136,-0.415,-0.4149,-0.415,-0.4075,-0.4064,-0.4154,-0.4154,-0.4154,-0.4154,-0.4154,-0.4154,-0.3959,-0.3999,-0.3996,-0.404,-0.4044,-0.4074,-0.4084,-0.4096,-0.4105,-0.414,-0.416,-0.4161,-0.4168,-0.4191,-0.4213,-0.4213,-0.4222,-0.4238,-0.4236,-0.4166,-0.4156,-0.4146,-0.4137,-0.424,-0.4241,-0.431,-0.431,-0.4311]},{"header":{"parameterUnit":"m.s-1","parameterCategory":1,"la1":30.2991,"la2":30.254,"lo1":-89.0895,"lo2":-89.0444,"dy":0.0017,"dx":0.0017,"nx":28,"ny":28,"refTime":"2024-02-17T03:00:00:Z","depth":0,"parameterNumber":3,"parameterNumberName":"V-component_of_WINDS"},"data":[0,0,0,0,0,0,0,0,0,0,0,0,0,0,0,0,0,0,0,0,0,0,0,0,0,0,0,0,0,0,0,0,0,0,0,0,0,0,0,0,0,0,0,0,0,0,0,0,0,0,0,0,0,0,0,0,0,0,-3.8423,-3.8424,0,-3.8507,-3.8508,-3.8509,-3.8453,-3.8451,-3.8448,-3.8446,-3.8528,-3.8533,-3.8537,0,0,0,0,0,0,0,0,0,0,0,0,0,-3.8211,-3.8215,-3.8423,-3.8424,-3.8425,-3.8507,-3.8508,-3.8509,-3.8454,-3.8451,-3.8448,-3.8445,-3.8527,-3.8532,-3.8537,0,0,0,0,0,0,0,0,0,0,0,0,0,-3.83,-3.8216,-3.8423,-3.8408,-3.8407,-3.8507,-3.8508,-3.8509,-3.8455,-3.8451,-3.8447,-3.8443,-3.8525,-3.8531,-3.8538,-3.8656,0,0,-3.8559,-3.8562,0,0,0,0,0,0,0,0,-3.8295,-3.8307,-3.8409,-3.8409,-3.8408,-3.8466,-3.8463,-3.8559,-3.8455,-3.8436,-3.8446,-3.8441,-3.851,-3.8518,-3.8542,-3.866,-3.8664,-3.856,-3.8564,-3.8567,-3.8569,0,0,0,0,0,0,0,-3.8288,-3.8303,-3.8456,-3.841,-3.841,-3.8395,-3.8403,-3.8481,-3.8493,-3.8438,-3.8434,-3.8445,-3.8509,-3.8536,-3.8544,-3.8665,-3.8559,-3.8566,-3.857,-3.8572,-3.8883,-3.8887,0,0,0,0,0,0,-3.8284,-3.8299,-3.8453,-3.8459,-3.8341,-3.8402,-3.8411,-3.8451,-3.8493,-3.8495,-3.8448,-3.8442,-3.8526,-3.8536,-3.8546,-3.8687,-3.8567,-3.8573,-3.8577,-3.8879,-3.8884,-3.8889,0,0,0,0,0,0,-3.828,-3.8299,-3.845,-3.8378,-3.8396,-3.841,-3.8455,-3.8455,-3.8481,-3.85,-3.8502,-3.8473,-3.8523,-3.8537,-3.863,-3.8689,-3.8576,-3.8582,-3.8874,-3.8881,-3.8887,-3.897,0,0,0,0,0,0,-3.8274,-3.8297,-3.8344,-3.8379,-3.84,-3.8534,-3.8459,-3.8459,-3.8493,-3.8486,-3.8524,-3.8527,-3.8521,-3.862,-3.8636,-3.8696,-3.8588,-3.8869,-3.8877,-3.8885,-3.8962,-3.8978,-3.8992,0,0,0,0,0,-3.8267,-3.8363,-3.8346,-3.8365,-3.8458,-3.8537,-3.8549,-3.8542,-3.8499,-3.8544,-3.8556,-3.8525,-3.868,-3.863,-3.8648,-3.8711,-3.8865,-3.8875,-3.8884,-3.8955,-3.8975,-3.8992,0,0,0,0,0,0,-3.8333,-3.8367,-3.8349,-3.846,-3.8496,-3.8528,-3.8585,-3.8563,-3.8612,-3.8603,-3.8591,-3.86,-3.8697,-3.8713,-3.8656,-3.8827,-3.8765,-3.8779,-3.8813,-3.8832,-3.8847,-3.8841,-3.8593,0,0,0,0,0,-3.836,-3.8423,-3.8449,-3.8545,-3.8564,-3.8572,-3.8606,-3.8597,-3.8634,-3.8648,-3.8667,-3.8703,-3.8759,-3.8796,-3.8849,-3.8964,-3.897,-3.9016,-3.9031,-3.9043,-3.9055,-3.9116,-3.9136,-3.892,-3.8919,-3.8919,0,0,-3.8418,-3.8444,-3.8485,-3.8559,-3.8586,-3.8649,-3.8585,-3.8655,-3.8702,-3.8658,-3.8748,-3.8763,-3.8801,-3.8906,-3.8952,-3.8922,-3.9116,-3.9055,-3.9065,-3.907,-3.9127,-3.9148,-3.9166,-3.8926,-3.8925,-3.8924,0,0,-3.8555,-3.8582,-3.8664,-3.8693,-3.8735,-3.8739,-3.8759,-3.8794,-3.8803,-3.8892,-3.8861,-3.8916,-3.9013,-3.9042,-3.9069,-3.9217,-3.919,-3.9234,-3.9313,-3.9373,-3.939,-3.9405,-3.9457,-3.9476,-3.9246,-3.9246,-3.9246,0,-3.8621,-3.8717,-3.8709,-3.8782,-3.8815,-3.878,-3.8862,-3.8889,-3.8946,-3.8969,-3.8935,-3.9056,-3.908,-3.919,-3.9226,-3.9249,-3.927,-3.923,-3.9388,-3.9403,-3.9417,-3.9467,-3.9486,-3.9251,-3.9251,-3.925,-3.925,0,-3.8796,-3.8863,-3.8924,-3.8981,-3.9021,-3.9098,-3.91,-3.9141,-3.9129,-3.9136,-3.9227,-3.9254,-3.9312,-3.9337,-3.9326,-3.9445,-3.9425,-3.939,-3.9328,-3.9443,-3.9489,-3.9508,-3.9259,-3.9257,-3.9255,-3.9254,0,0,-3.8978,-3.9029,-3.9052,-3.9077,-3.912,-3.9171,-3.9246,-3.9304,-3.9339,-3.9378,-3.944,-3.9524,-3.9491,-3.9522,-3.9513,-3.9565,-3.968,-3.9523,-3.9524,-3.9551,-3.9812,-3.9839,-3.9861,-3.9662,-3.9666,-3.9668,-3.9809,0,-3.9117,-3.925,-3.9244,-3.9367,-3.9428,-3.9395,-3.946,-3.9493,-3.9502,-3.9554,-3.9563,-3.9623,-3.9575,-3.9594,-3.9644,-3.9655,-3.9732,-3.9645,-3.9718,-3.9721,-3.971,-3.9885,-3.9914,-4.0045,-3.9827,-3.983,-3.9832,0,-3.9298,-3.9346,-3.9475,-3.9509,-3.9535,-3.9594,-3.9645,-3.9696,-3.9732,-3.9734,-3.9769,-3.9752,-3.9826,-3.9762,-3.9863,-3.9805,-3.9834,-3.9844,-3.9849,-3.9855,-3.9784,-3.9896,-4.0087,-4.0107,-3.9861,-3.9859,-3.9857,0,-3.9417,-3.9513,-3.9603,-3.9626,-3.9668,-3.971,-3.9729,-3.9761,-3.9796,-3.9841,-3.9863,-3.9915,-3.9944,-3.9984,-3.998,-3.9934,-4.0083,-4.0019,-4.0086,-4.0087,-4.0119,-4.0117,-4.0317,-4.0139,-4.0138,-4.0138,-4.0138,0,-3.9574,-3.9654,-3.9657,-3.9713,-3.9801,-3.9793,-3.9881,-3.9895,-3.9924,-3.9981,-3.9955,-4.0008,-4.0,-4.0053,-4.005,-4.0134,-4.0147,-4.0151,-4.0149,-4.0153,-4.0153,-4.0172,-4.0163,-4.0143,-4.0142,-4.0141,-4.014,0,-3.9722,-3.9728,-3.9823,-3.9855,-3.9865,-3.9929,-3.9956,-4.0007,-4.0014,-4.0086,-4.0102,-4.0112,-4.0173,-4.0173,-4.0242,-4.024,-4.0343,-4.0331,-4.0331,-4.0329,-4.0396,-4.039,-4.0616,-4.0644,-4.0447,-4.0449,-4.0451,0,-3.9822,-3.9883,-3.9922,-3.9959,-3.9981,-4.004,-4.0075,-4.0069,-4.0107,-4.0152,-4.0198,-4.0257,-4.0303,-4.0402,-4.0414,-4.0467,-4.0455,-4.0531,-4.0463,-4.0465,-4.0456,-4.0453,-4.0458,-4.0544,-4.0546,-4.0548,-4.055,0,-3.9998,-3.9997,-4.005,-4.0105,-4.0148,-4.019,-4.0228,-4.0259,-4.0257,-4.03,-4.0363,-4.0399,-4.047,-4.0528,-4.0579,-4.0597,-4.0573,-4.0571,-4.0589,-4.0594,-4.0592,-4.0593,-4.0367,-4.0566,-4.0564,-4.0563,-4.0562,-4.0561,-4.0125,-4.0177,-4.0213,-4.0273,-4.0301,-4.0338,-4.0388,-4.0401,-4.0453,-4.0512,-4.0504,-4.0574,-4.0607,-4.0673,-4.0695,-4.0748,-4.0722,-4.0748,-4.0755,-4.0762,-4.0769,-4.0583,-4.0757,-4.0757,-4.0756,-4.0756,-4.0756,0,-4.0299,-4.032,-4.0375,-4.0431,-4.0477,-4.0452,-4.0493,-4.0533,-4.0595,-4.0629,-4.0675,-4.0746,-4.0803,-4.0819,-4.0873,-4.0912,-4.0903,-4.0927,-4.0924,-4.0928,-4.079,-4.0768,-4.0934,-4.0934,-4.0934,-4.0934,-4.0934,-4.0934,-4.0395,-4.0483,-4.0487,-4.0588,-4.0608,-4.0677,-4.0703,-4.0736,-4.0763,-4.0844,-4.0891,-4.0902,-4.0928,-4.0984,-4.1034,-4.1037,-4.1058,-4.1086,-4.1085,-4.0956,-4.0938,-4.0921,-4.0901,-4.1091,-4.1091,-4.1219,-4.122,-4.1221]}]]